Theta_e
299 298 298 298 297 297 296 297 297 296 297 300 301 304 309 311 312 313 312 313 315 317 320 320 320 320 319 318 318 318 318 318 317 316 316 317 317 317 317 318 318 318 318 317 317 318 318 318 317 317 317 315 314 313 312 312 312 313 314 315 314 311 312 314 314 313 313 313 313 313 313 313 314 314 313 313 314 313 315 315 314 314 315 316 315 317 317
298 297 297 297 297 296 296 296 296 295 296 298 300 305 309 311 312 312 311 313 315 317 319 319 319 319 318 318 318 318 318 317 317 316 317 317 316 317 317 316 316 316 316 316 316 316 315 315 315 315 315 314 313 311 311 312 313 313 313 313 312 311 313 314 315 315 314 313 313 314 313 313 313 313 312 314 314 314 315 315 314 313 314 315 314 315 314
298 297 296 297 297 296 296 296 296 295 295 296 299 305 309 309 310 311 310 311 313 316 317 316 318 318 317 318 317 317 317 316 316 316 316 315 315 315 316 315 314 315 314 315 315 314 314 314 314 315 315 315 314 311 311 312 312 312 312 312 310 310 312 313 313 315 315 314 314 313 312 312 313 313 312 313 313 314 314 313 313 313 313 313 314 313 313
297 297 296 297 296 296 296 296 296 295 294 295 298 304 308 308 308 311 312 310 311 314 314 314 316 317 317 317 316 316 317 315 314 315 314 314 314 314 314 313 313 314 314 314 314 313 314 314 314 314 313 313 313 311 310 309 310 311 311 310 309 309 310 310 311 311 312 311 311 310 309 309 309 309 310 311 312 313 313 312 312 312 312 312 312 312 312
297 297 297 297 296 296 296 295 295 295 294 294 297 302 305 304 305 311 313 312 312 313 313 314 316 315 315 316 315 315 315 314 314 313 313 313 313 313 313 313 313 313 313 313 312 311 311 312 313 313 312 311 311 311 310 309 308 309 309 308 307 307 307 308 308 309 308 308 307 307 307 306 306 306 307 308 309 311 312 311 310 310 310 309 309 309 310
297 297 297 297 297 296 296 295 295 295 294 293 296 301 303 301 303 308 309 311 314 314 313 313 314 315 314 313 313 313 313 313 312 312 312 312 312 312 311 311 311 311 310 310 310 309 309 310 310 311 310 310 310 310 310 308 306 307 308 307 306 306 305 305 305 306 305 305 305 305 305 306 306 305 306 306 306 308 309 309 308 308 309 308 307 307 308
297 298 298 297 297 296 296 296 295 294 294 293 295 300 301 298 300 303 303 307 310 310 310 312 314 314 313 313 312 311 311 310 310 310 310 310 311 311 310 309 310 310 310 310 310 309 309 309 310 310 310 309 308 308 308 307 304 304 305 306 306 305 304 305 305 306 306 305 305 304 305 305 305 305 305 305 305 306 306 306 306 306 307 306 306 306 306
297 298 298 297 297 297 296 296 295 294 294 294 295 298 300 298 299 301 302 303 304 304 307 311 312 313 313 313 312 310 309 309 308 309 309 309 309 309 309 309 309 308 309 311 310 309 309 309 309 308 307 307 306 306 306 305 304 304 304 304 305 305 304 304 305 305 305 304 304 304 305 305 305 305 305 305 305 305 305 305 305 305 306 305 304 305 305
298 298 298 297 297 297 297 296 296 295 295 295 295 297 298 298 298 299 301 303 302 301 305 308 310 310 310 310 310 309 308 307 306 307 307 307 307 307 308 308 307 305 306 309 309 308 307 306 305 305 305 305 305 304 304 303 303 303 303 303 304 304 304 304 304 304 304 304 304 304 303 303 303 304 304 305 305 304 304 304 304 304 304 303 304 304 304
298 297 297 297 297 297 297 296 296 295 295 295 296 296 296 297 297 297 300 303 302 301 303 305 307 307 307 307 308 307 307 306 305 306 305 303 304 305 306 306 306 305 305 306 306 304 303 302 302 301 301 301 301 301 302 302 302 303 303 303 303 303 303 303 303 304 304 304 303 302 301 301 302 302 303 303 303 303 303 303 303 302 302 302 303 302 301
298 297 297 297 297 297 297 297 296 296 295 296 296 296 296 297 298 298 298 300 301 301 301 303 304 305 305 305 306 305 305 305 305 305 304 302 300 301 302 304 304 304 303 302 301 300 299 299 298 298 298 298 299 299 299 300 301 301 301 301 301 302 302 301 302 302 302 302 302 301 301 302 302 301 300 301 301 301 301 300 300 300 300 301 301 299 297
298 298 297 297 297 297 297 297 296 296 296 296 296 296 296 296 297 298 297 297 299 300 300 300 302 303 302 303 304 304 304 304 303 303 303 302 300 298 299 301 302 302 300 299 298 298 298 298 298 298 298 298 298 298 298 299 299 299 299 300 300 300 300 300 300 301 300 300 300 300 300 300 300 299 299 299 299 299 299 299 298 298 299 300 299 298 298
298 298 297 297 297 297 297 297 297 297 296 296 295 295 295 295 295 296 297 296 297 299 299 299 300 300 300 301 302 301 300 300 299 299 300 301 299 297 297 298 299 300 299 298 298 297 297 297 297 297 297 297 297 298 298 298 298 298 298 299 299 299 299 299 298 298 298 298 298 299 299 298 298 298 298 298 298 298 298 298 298 298 298 299 299 298 296
297 297 297 297 297 296 296 297 297 297 297 296 296 295 295 294 294 295 296 295 295 298 299 297 297 298 298 299 300 298 297 297 296 296 297 298 298 297 296 296 297 298 298 297 296 295 294 294 294 294 295 295 295 296 297 297 298 298 298 298 298 298 298 298 298 297 297 297 298 298 299 298 298 297 297 297 297 297 297 297 298 298 297 297 297 296 293
298 297 297 297 297 296 296 297 297 297 297 296 296 295 295 294 294 295 296 295 294 296 297 296 296 297 297 298 298 297 296 296 295 295 295 294 295 295 295 295 296 296 296 295 294 294 293 293 293 293 293 293 293 293 293 293 294 296 296 296 297 298 298 298 298 298 297 297 298 298 298 298 298 297 296 295 295 295 296 296 297 297 296 296 296 293 290
298 298 298 298 297 297 297 297 297 297 297 296 296 296 296 295 294 295 295 295 294 295 296 295 296 297 296 297 297 296 295 295 295 294 293 293 293 293 293 293 293 295 295 294 293 293 294 294 293 292 292 292 292 292 292 291 291 293 294 294 295 296 297 297 298 298 298 297 297 297 297 297 296 296 295 294 295 295 295 295 295 295 294 294 293 291 289
297 297 297 298 297 298 298 297 297 297 297 297 296 296 296 295 295 294 294 294 294 294 295 295 296 296 295 295 295 294 294 294 294 294 293 293 293 293 291 291 292 294 294 294 293 293 293 293 293 292 292 292 291 291 291 291 291 292 293 293 294 294 295 296 296 296 297 297 297 296 296 295 295 294 294 294 295 294 294 293 293 293 292 291 290 289 289
297 297 298 297 297 298 298 297 297 297 297 297 297 297 296 296 295 294 294 294 294 294 294 295 295 295 295 294 294 294 294 294 294 294 293 293 292 292 291 291 292 293 293 293 293 293 293 292 292 291 292 292 290 290 291 292 292 292 292 292 293 294 294 295 295 295 296 296 296 295 294 295 295 295 294 294 294 294 294 293 292 291 291 290 289 290 290
298 298 298 298 298 298 298 298 297 297 297 297 297 297 297 296 295 295 294 294 294 294 295 295 294 295 295 295 295 294 294 294 294 294 293 293 292 292 292 291 292 292 292 293 292 293 293 292 292 292 291 291 291 290 291 292 292 291 291 291 292 292 292 293 293 294 294 294 295 294 293 294 295 294 293 294 293 293 293 292 290 290 291 290 290 290 290
298 298 298 298 298 298 298 298 298 297 297 298 297 297 297 296 295 295 294 294 294 294 295 295 294 294 295 294 294 294 294 294 294 294 293 293 292 291 291 292 292 291 292 292 292 293 293 292 292 292 291 292 292 291 290 291 291 291 291 291 291 292 292 291 292 293 293 293 294 293 293 293 294 293 292 293 293 293 292 291 290 291 291 291 291 290 290
297 298 298 298 298 298 298 298 298 298 298 298 297 297 297 296 296 295 295 295 294 294 295 295 294 294 295 294 294 294 294 294 294 294 294 293 292 292 292 293 292 291 291 292 292 292 293 292 292 292 291 291 292 291 290 291 291 291 291 291 291 291 291 291 291 292 292 291 293 293 293 292 293 292 292 292 293 293 292 292 291 291 291 290 290 290 290
297 297 297 297 297 297 297 297 298 298 298 298 297 297 297 297 296 295 295 295 295 295 295 296 295 294 294 294 294 294 294 294 294 294 294 293 293 293 292 293 293 291 291 292 291 291 291 291 290 291 291 291 291 291 291 290 290 291 291 290 291 292 292 291 291 291 291 291 291 292 292 292 292 293 292 292 292 293 292 292 291 291 291 290 290 290 289
297 297 297 297 297 297 297 297 297 297 297 298 297 297 297 297 297 296 295 295 295 294 295 295 295 294 294 295 294 294 294 294 294 294 294 293 293 293 292 292 293 291 291 291 292 292 291 290 290 291 291 291 291 291 290 290 290 290 291 291 291 291 291 291 291 291 291 291 291 291 291 291 291 292 292 292 292 292 292 291 291 291 291 290 290 289 289
297 297 297 297 297 297 297 297 297 297 297 297 297 297 297 297 296 295 294 294 294 294 295 294 294 294 294 294 295 294 294 294 294 294 294 294 294 294 293 293 293 291 290 291 292 292 291 290 290 291 291 291 291 291 290 290 290 290 290 290 291 291 291 291 290 290 290 290 290 290 291 291 291 291 291 292 292 291 291 291 291 290 290 290 290 289 289
297 296 296 297 297 297 297 297 297 297 297 297 297 297 296 296 296 296 294 294 294 294 295 295 295 295 295 295 295 295 294 294 294 294 294 294 293 293 294 294 293 292 292 292 292 291 290 290 290 291 291 291 292 291 291 291 291 290 290 290 290 291 291 290 290 290 290 290 290 290 290 291 291 291 291 291 291 291 291 291 290 290 290 289 289 288 287
297 296 296 296 297 297 296 296 297 297 297 297 297 297 297 297 296 296 295 294 294 293 294 295 295 294 294 295 295 295 294 294 294 294 294 294 294 294 294 294 294 293 293 292 292 291 291 291 291 291 291 292 292 292 291 291 291 291 291 291 291 291 291 290 290 290 290 290 290 290 290 290 291 291 291 291 291 290 290 290 290 290 290 289 287 286 286
296 296 296 296 297 297 296 297 297 297 297 297 297 297 297 296 296 296 295 295 294 294 294 294 294 294 294 294 295 295 295 295 294 294 294 294 294 294 293 293 293 293 292 292 291 291 291 291 291 291 291 291 292 292 292 291 291 291 291 291 291 291 291 290 290 290 290 290 290 290 290 290 290 290 291 291 290 290 290 290 290 289 289 288 287 285 283
296 296 296 296 296 296 296 297 297 297 296 296 297 297 296 296 296 295 295 295 295 295 294 293 292 292 292 293 294 295 295 295 295 294 294 294 294 294 293 293 293 292 292 291 291 291 290 290 291 291 291 291 291 292 292 291 291 291 291 291 291 291 291 290 290 290 290 290 290 291 290 290 290 290 291 291 290 290 289 289 289 289 288 287 286 284 283
295 295 296 296 296 296 296 296 297 297 296 296 296 296 295 295 295 294 295 295 295 294 293 292 291 291 292 293 293 294 295 295 295 295 295 294 294 294 294 293 293 292 291 291 291 291 291 291 291 291 291 291 291 291 292 292 291 291 291 291 291 291 291 291 291 290 290 290 291 291 290 290 290 290 290 290 289 289 289 288 288 287 285 283 283 283 282
295 295 295 296 296 296 296 296 296 296 296 296 296 294 292 293 293 294 294 295 294 294 293 294 293 293 292 293 292 293 294 294 294 295 295 294 294 294 294 294 293 292 291 291 291 291 291 291 291 291 291 292 291 291 291 292 291 291 291 291 291 291 291 291 291 291 291 291 291 291 290 290 290 290 289 288 286 286 286 286 285 283 281 280 280 279 278
295 295 295 295 295 296 296 296 296 296 296 295 294 292 292 293 294 294 294 294 294 293 293 294 294 293 292 292 292 293 294 294 294 294 294 294 294 294 294 293 293 293 292 291 291 291 291 291 292 291 292 292 292 291 291 291 291 291 291 291 291 291 291 291 291 291 291 291 291 291 291 290 290 290 289 287 285 284 283 282 280 279 277 277 276 275 275
294 294 295 295 295 295 295 295 296 296 296 295 294 293 293 294 294 294 294 294 294 293 292 293 294 293 292 292 290 290 292 294 294 293 294 294 293 294 294 293 293 293 292 291 290 291 291 292 292 291 292 292 292 291 290 290 291 291 291 291 291 291 291 291 291 291 291 291 291 291 291 290 290 289 288 284 281 280 279 278 275 274 274 273 273 272 272
294 294 294 295 295 295 295 295 295 295 295 295 295 294 294 293 293 293 294 293 293 292 292 293 293 292 292 290 288 288 291 293 293 292 293 293 293 293 293 292 292 292 292 291 291 291 291 292 291 291 292 292 292 291 290 290 290 290 290 291 291 291 291 291 291 291 290 290 290 291 290 289 287 284 281 279 277 276 276 274 272 272 271 271 271 271 270
293 293 293 294 295 294 294 295 295 295 295 294 293 294 294 294 293 293 293 293 292 292 292 292 291 291 291 289 288 289 291 292 291 292 292 293 292 292 292 291 291 291 291 291 291 291 291 291 291 291 292 292 292 292 291 291 290 290 290 291 291 291 291 291 291 291 291 290 289 288 285 283 281 279 278 277 275 274 273 271 271 271 271 271 271 271 270
293 293 293 294 294 294 294 294 294 294 294 293 292 293 294 294 293 293 293 292 291 292 292 291 291 291 291 289 289 290 291 291 291 291 291 292 292 291 291 291 291 291 291 291 291 291 291 291 291 291 291 292 292 292 291 291 290 290 290 290 291 291 291 291 291 291 288 285 284 282 280 278 279 280 279 278 275 272 271 270 270 271 272 271 271 270 268
293 293 293 293 294 293 294 293 293 293 294 293 293 293 294 294 293 292 292 291 291 291 292 292 291 291 291 290 290 290 290 291 291 291 290 290 290 290 290 291 291 291 290 290 290 290 291 291 291 291 291 292 292 292 291 291 291 291 291 291 291 291 291 291 291 289 284 280 279 278 277 277 279 279 278 276 274 272 271 270 269 269 271 271 270 268 267
292 293 293 293 293 292 292 293 293 293 293 293 293 293 293 293 293 292 291 290 289 289 290 292 292 291 291 291 290 289 289 290 291 291 289 289 289 290 290 290 291 291 290 290 291 291 290 290 291 290 291 291 291 291 291 291 291 291 291 291 291 291 291 291 289 287 283 279 277 275 274 274 276 276 276 275 273 271 271 270 269 269 269 268 268 267 265
292 292 292 292 292 291 292 292 293 293 293 293 293 293 293 292 292 291 290 290 290 289 289 291 292 292 291 291 290 289 289 290 290 290 289 289 289 288 288 289 290 291 290 290 291 290 290 290 290 290 290 291 291 291 291 291 291 291 291 291 290 290 288 286 285 285 286 285 283 280 277 277 276 275 274 274 272 270 270 269 267 266 266 265 265 264 263
291 292 292 291 291 291 292 292 292 293 293 292 292 293 292 291 291 291 290 289 290 289 289 290 291 291 291 290 290 289 290 290 290 289 289 289 289 288 288 289 290 290 290 290 290 290 291 290 290 290 290 290 290 291 291 290 291 291 289 286 283 281 280 279 279 280 282 282 280 278 277 277 277 276 274 273 271 269 267 266 265 264 263 263 262 262 262
291 291 290 290 291 291 292 293 292 292 293 292 292 292 291 291 290 290 289 289 289 288 289 291 291 291 291 291 290 290 290 290 290 290 289 289 289 288 287 288 289 290 290 290 290 289 290 290 290 290 290 290 290 291 290 291 291 288 282 277 275 274 274 274 273 272 272 272 270 268 268 268 271 272 271 270 269 267 265 264 263 262 262 261 261 261 260
291 290 289 290 291 291 291 292 291 291 291 291 290 290 290 290 288 286 287 289 289 287 287 289 290 291 291 291 291 290 290 289 289 289 289 289 288 288 287 288 289 290 289 289 289 288 288 289 289 289 290 290 290 290 290 291 289 282 274 270 270 270 270 269 268 267 268 268 266 264 263 262 263 265 264 264 264 264 263 262 261 260 260 260 260 260 260
290 290 290 290 289 289 290 290 289 289 290 290 290 290 289 288 287 285 286 288 289 287 286 288 290 291 291 291 291 290 289 287 288 289 289 289 288 288 287 287 288 289 289 288 287 287 287 288 288 288 289 289 290 290 290 289 284 276 269 267 267 267 267 267 266 264 264 265 264 262 261 260 260 260 260 260 260 260 260 259 259 259 259 259 258 258 258
289 289 289 289 288 289 290 290 289 290 289 289 289 289 288 286 287 287 287 286 285 286 287 288 289 289 290 290 289 288 287 287 287 287 288 288 288 287 286 286 287 288 287 286 286 286 287 287 288 288 288 289 289 288 285 280 274 269 266 265 265 265 265 264 263 262 261 261 261 260 259 259 259 259 258 258 258 258 258 258 258 258 258 257 257 257 257
288 288 287 288 288 289 290 290 290 290 289 288 288 290 289 288 288 289 288 286 285 286 288 288 288 289 290 289 288 287 286 287 287 286 287 287 287 286 286 287 286 285 285 285 286 286 285 286 287 288 288 289 286 280 275 272 269 267 265 263 263 264 264 262 262 261 261 260 259 259 258 258 258 258 257 257 257 257 257 257 257 257 257 256 256 256 256
288 287 287 288 288 289 289 290 289 289 289 289 289 289 290 290 289 289 288 287 286 287 288 288 289 290 288 287 287 287 287 286 287 286 286 287 287 287 287 286 285 284 285 286 286 285 285 286 287 287 288 288 283 273 268 267 267 266 265 263 262 262 263 262 262 261 260 259 259 258 258 258 258 257 257 257 257 257 256 256 256 256 256 256 256 256 256
288 287 287 288 288 288 288 289 288 288 289 290 289 289 290 290 290 289 288 287 287 288 289 289 290 290 287 285 285 286 285 285 286 286 286 286 287 287 286 284 284 285 285 285 285 285 286 287 287 287 287 286 279 269 265 265 265 264 264 264 262 261 261 261 260 260 260 259 259 258 258 258 258 257 257 257 257 256 256 256 256 256 256 256 256 256 256
288 286 286 287 287 287 288 288 286 285 286 288 289 289 289 288 288 287 286 285 287 289 288 287 288 288 286 284 284 284 284 284 286 286 285 285 286 285 284 284 285 285 285 286 286 286 286 287 288 288 285 279 272 266 263 262 262 262 263 262 260 259 259 259 259 259 260 259 259 258 258 258 257 256 256 256 256 256 256 256 256 256 256 255 255 255 255
286 286 287 287 287 287 287 286 285 284 282 281 282 282 283 284 288 287 283 283 286 289 288 287 286 286 285 284 285 284 284 284 285 286 285 285 285 284 284 284 284 285 285 285 286 287 287 286 284 280 273 268 266 265 262 261 261 261 261 260 259 259 259 258 258 258 258 257 257 257 257 256 256 255 255 256 256 256 256 256 256 255 255 255 255 255 255
284 284 283 281 280 281 281 281 283 285 282 278 277 278 280 284 288 286 281 280 285 287 287 286 286 285 284 284 284 285 285 285 286 286 285 284 284 285 285 284 285 285 285 285 287 287 284 277 271 266 263 262 262 262 261 260 260 260 260 259 259 258 258 258 257 256 256 256 256 256 256 255 256 256 256 256 256 256 256 256 256 256 256 256 255 254 255
281 282 280 278 279 280 280 280 283 285 283 280 279 280 281 284 285 282 278 280 284 285 284 285 286 285 284 284 284 285 285 285 285 286 285 285 285 285 284 284 285 285 285 285 284 281 275 267 263 261 261 260 260 260 260 259 259 259 258 258 257 257 256 256 256 255 255 255 255 255 255 255 255 255 255 255 255 255 255 256 257 257 257 257 256 255 255
280 281 280 279 279 281 282 282 284 285 284 283 283 281 280 282 283 279 277 279 284 285 285 285 285 284 284 284 285 285 285 284 285 285 285 284 284 284 285 286 286 286 284 280 274 269 266 264 262 261 260 259 259 259 259 258 258 258 257 256 256 256 256 255 255 255 255 255 254 254 254 254 254 254 254 254 253 253 253 256 257 257 257 257 257 256 256
281 280 278 276 275 276 279 282 284 283 282 282 281 280 279 280 279 276 275 279 284 285 284 283 282 282 283 284 284 283 284 284 284 284 285 284 283 283 285 285 283 279 275 272 267 263 262 262 262 260 260 260 259 258 258 258 258 257 255 254 254 255 255 255 255 255 254 254 254 254 254 254 254 254 254 252 252 252 254 256 257 258 257 257 257 257 257
Wind_Speed
9 8 7 6 5 3 2 1 3 3 4 8 10 7 3 4 2 2 8 21 22 12 7 8 6 6 6 3 3 4 3 3 5 5 4 3 2 2 4 6 7 8 8 8 9 8 6 7 10 9 10 10 4 2 3 3 2 1 3 3 1 2 2 5 6 7 10 13 15 11 4 3 6 7 7 7 9 10 9 7 6 5 7 8 9 10 5
9 7 6 6 5 3 2 1 2 1 3 7 8 5 3 3 1 2 6 18 19 10 8 9 9 9 7 5 8 8 5 6 6 7 7 6 4 5 6 8 9 8 8 8 9 8 6 6 7 7 8 5 3 5 3 1 0 1 2 1 1 1 2 3 4 6 7 8 10 7 2 1 4 6 6 6 9 11 9 6 5 4 7 11 12 11 6
8 6 6 6 5 4 3 1 1 2 1 5 6 3 2 4 3 1 3 9 11 7 5 6 8 11 12 12 13 12 8 6 7 8 9 7 7 7 5 4 5 7 9 8 8 9 7 6 5 4 5 2 3 4 4 4 2 2 4 5 2 3 2 2 3 5 6 7 7 5 2 1 2 4 5 6 8 11 10 8 8 9 11 12 11 10 6
8 7 7 7 6 5 3 2 1 2 2 3 5 4 3 4 3 3 3 3 6 5 3 5 8 10 12 11 11 14 12 6 5 7 9 10 10 9 6 3 3 7 9 8 9 11 9 7 5 4 5 4 1 3 4 5 5 5 5 3 0 2 3 5 8 9 9 10 10 11 10 8 8 8 9 10 10 11 9 8 10 10 10 10 10 12 11
9 10 10 9 8 6 5 3 3 4 3 1 3 3 3 3 3 5 5 2 5 5 4 6 8 9 11 8 7 13 16 10 6 6 6 6 8 9 8 7 7 8 9 9 11 12 12 10 10 9 10 8 4 3 4 5 5 4 4 3 1 3 5 9 11 12 14 16 17 17 16 15 15 15 15 15 14 13 11 12 14 12 10 10 10 13 15
12 12 12 11 10 8 6 5 5 4 3 1 2 3 3 2 1 3 1 1 6 6 5 7 9 11 12 8 8 12 13 11 8 6 3 1 4 6 7 10 13 13 12 10 9 10 12 11 11 11 9 7 5 3 3 5 4 2 2 3 2 4 7 11 12 14 17 18 19 18 17 16 16 17 19 19 18 18 17 17 19 16 13 12 12 17 20
14 14 13 12 11 10 8 7 6 5 3 2 3 3 2 1 1 0 2 1 3 1 2 7 10 13 11 7 10 14 13 12 9 3 3 4 6 8 10 11 10 10 10 9 8 9 9 7 6 3 1 0 2 4 3 2 4 2 1 2 3 4 6 9 10 11 15 17 18 18 18 18 18 20 22 22 22 24 23 21 22 21 18 18 20 24 24
14 14 13 13 12 11 9 8 7 7 5 3 4 4 2 1 1 1 1 0 1 2 1 7 10 11 10 8 9 11 12 14 9 3 4 7 7 9 12 9 3 1 3 7 10 10 4 2 1 2 2 2 2 4 5 2 2 2 1 2 2 4 7 7 5 7 11 14 17 18 15 15 15 15 18 22 24 25 23 21 21 20 20 21 23 23 20
15 15 14 13 12 11 10 9 9 8 5 3 4 4 1 1 3 2 1 2 2 2 3 7 9 9 10 10 10 11 14 17 12 4 1 4 7 9 10 6 4 3 3 7 10 6 2 2 1 2 0 3 3 3 2 1 1 1 1 2 2 4 6 5 4 7 9 11 13 12 8 8 11 12 15 20 21 20 19 17 17 19 20 22 23 18 12
16 15 15 14 13 12 12 11 10 8 5 3 3 2 1 0 2 2 2 2 4 4 3 6 9 8 9 12 11 9 11 12 12 8 2 3 1 5 6 6 4 4 6 6 4 2 6 4 3 3 1 1 2 3 2 2 4 4 3 3 3 5 5 4 5 6 6 7 7 5 5 7 11 11 12 16 16 16 17 16 17 20 19 17 15 10 4
16 16 15 15 14 14 13 12 11 11 8 4 3 2 1 1 1 1 2 3 4 5 4 6 8 5 5 9 7 4 4 6 10 11 6 4 3 1 3 6 6 7 4 3 5 7 6 4 3 1 2 3 4 6 6 7 8 6 6 5 5 7 8 7 6 5 6 8 6 5 6 10 8 2 4 11 14 15 16 16 17 18 16 11 7 2 2
17 17 16 16 15 15 15 14 13 13 11 6 4 3 2 2 1 1 3 4 4 5 5 6 5 3 4 7 6 5 6 7 6 4 4 6 6 3 2 4 5 4 4 7 7 5 3 1 1 3 5 7 8 9 10 13 12 9 9 9 8 9 9 8 7 7 9 9 8 10 12 9 2 2 2 7 10 11 14 17 18 19 17 15 12 7 3
18 18 17 17 17 16 16 16 15 15 13 9 6 5 4 4 2 1 2 4 4 6 6 4 2 3 5 6 6 5 4 4 3 3 1 6 7 5 3 3 3 3 6 6 4 1 1 4 6 7 8 8 9 11 15 17 16 13 12 12 11 10 9 8 7 8 9 8 9 11 9 3 2 2 3 3 4 8 11 13 14 13 12 13 13 6 2
20 20 20 19 18 18 18 17 17 17 16 14 9 7 7 7 5 2 2 3 4 4 5 3 3 6 8 8 8 6 5 5 3 2 2 4 5 5 4 2 3 5 5 3 2 1 3 4 4 5 6 6 6 8 12 14 15 16 15 14 12 11 9 7 7 8 8 9 10 10 10 9 8 6 2 1 3 5 6 8 7 4 4 6 4 3 6
22 21 22 21 20 19 19 18 18 18 18 17 12 9 9 10 8 4 1 2 3 4 5 4 5 9 10 9 9 7 5 5 4 3 2 2 2 2 3 4 4 4 4 3 3 4 4 3 3 4 4 5 4 3 3 4 6 6 7 7 8 10 10 8 8 7 7 9 10 9 11 11 7 3 3 5 5 5 5 6 6 1 2 1 4 6 3
25 24 23 23 23 22 21 20 20 19 20 19 15 12 12 11 9 6 3 2 3 3 3 4 5 8 8 7 8 8 6 5 6 4 2 3 4 3 4 4 2 3 4 4 3 3 3 3 4 4 4 2 1 1 1 1 1 1 1 1 4 7 8 8 9 8 7 9 10 9 10 7 2 1 2 5 4 5 5 8 8 1 5 5 5 3 4
28 27 26 26 26 26 25 23 23 22 22 22 19 15 14 13 12 9 4 2 4 3 1 2 5 7 6 5 6 6 5 4 5 3 3 4 5 4 3 2 1 3 6 5 3 3 4 5 4 4 4 2 2 2 1 1 1 2 3 2 3 4 5 7 9 9 9 10 9 8 8 5 1 2 3 2 3 2 3 9 7 3 6 3 1 3 6
26 27 27 26 27 27 27 26 27 26 24 25 23 19 16 16 16 12 6 3 4 3 2 6 9 6 4 4 5 5 4 4 4 2 1 2 3 3 4 3 2 4 6 5 5 5 6 6 4 5 5 3 4 2 2 3 2 3 3 2 2 3 4 6 9 10 11 11 10 7 8 7 5 7 5 2 3 2 7 8 2 3 4 2 3 6 7
24 24 24 24 25 25 25 27 29 29 27 26 26 21 18 19 20 17 10 5 5 4 4 9 10 6 2 3 4 4 3 5 5 4 3 3 3 5 4 2 2 3 5 5 5 6 6 6 5 4 4 4 3 1 3 3 2 1 3 4 4 3 3 5 8 9 9 10 10 9 8 5 4 3 2 5 4 5 6 2 3 5 7 6 6 7 7
24 24 24 24 24 24 24 25 27 29 29 28 27 24 21 22 25 23 16 8 5 6 5 8 11 10 6 5 6 6 5 5 5 5 4 4 5 7 5 4 4 4 5 6 5 5 5 6 6 4 5 6 3 2 2 5 4 4 5 6 6 4 4 5 7 7 7 8 8 8 7 2 5 4 1 4 7 6 3 1 3 6 6 5 6 7 7
26 26 25 25 25 25 25 25 25 26 26 27 29 27 22 23 27 28 23 14 7 6 6 8 13 14 12 11 11 10 9 8 8 7 4 3 6 6 4 4 6 5 4 5 5 4 4 5 5 4 4 4 3 3 3 4 5 6 5 5 6 5 5 6 6 5 6 8 7 6 6 3 5 6 4 5 6 5 4 4 5 5 5 6 6 6 7
27 27 27 27 26 27 27 27 26 26 26 26 28 27 22 21 25 29 27 20 13 8 6 6 12 17 19 18 16 14 14 13 10 9 6 3 6 7 2 3 6 5 3 4 4 4 3 3 4 4 4 5 5 5 5 5 5 3 2 3 6 7 8 9 7 6 8 9 8 7 8 6 5 7 7 8 9 9 7 6 6 7 6 6 6 8 9
28 28 28 28 28 28 28 28 28 28 28 27 27 27 24 21 23 28 26 19 13 10 8 7 10 13 15 18 19 18 18 17 15 14 12 7 6 7 5 4 4 3 2 4 5 4 4 4 4 4 4 5 6 6 6 7 6 4 4 6 7 10 11 10 8 9 11 11 11 11 13 13 11 10 10 10 11 10 7 6 7 7 6 6 7 9 9
28 29 29 29 29 29 29 29 29 29 29 28 28 29 27 23 24 25 20 10 6 7 7 7 8 10 14 19 21 20 21 22 21 20 19 14 8 6 7 7 6 3 3 6 5 2 2 3 3 4 5 5 6 7 7 7 8 7 7 7 8 12 14 11 8 10 11 10 11 13 15 16 15 13 11 12 12 10 9 8 8 8 8 9 8 8 7
29 30 30 30 30 30 30 30 30 29 29 29 30 29 27 24 25 27 20 9 4 5 5 6 11 20 22 20 20 23 28 30 26 22 22 20 15 11 10 10 10 9 7 6 4 2 2 3 3 4 6 6 6 8 8 8 9 8 8 8 7 8 10 9 10 12 12 11 13 15 17 17 16 13 11 11 11 12 12 11 10 10 11 8 5 4 5
28 29 31 31 30 30 30 30 31 31 31 31 30 29 27 25 26 29 24 11 2 4 6 5 7 15 18 16 20 28 32 32 29 25 24 25 24 22 17 11 9 9 6 3 4 4 4 4 4 5 6 6 7 9 8 9 10 9 9 11 9 7 7 7 8 10 11 12 15 17 17 17 16 15 13 12 12 13 14 13 11 11 10 5 3 3 3
26 27 29 30 30 30 30 30 30 31 31 31 29 29 28 28 28 31 29 18 5 2 7 6 2 5 11 15 23 27 25 26 29 26 25 26 27 26 20 11 7 7 5 3 3 4 4 4 5 6 6 4 5 7 7 8 10 9 10 11 10 10 11 10 8 9 9 11 13 14 12 11 12 12 12 12 12 13 13 11 10 10 9 5 5 4 4
25 26 27 28 29 30 30 29 30 30 31 30 30 30 30 31 32 33 36 33 18 3 1 3 1 1 3 9 16 20 20 22 25 24 24 27 27 24 19 13 8 6 6 5 4 3 5 6 5 4 5 4 5 7 7 7 8 7 9 11 11 11 13 11 9 10 11 12 13 12 10 10 11 12 13 12 9 9 9 10 10 8 5 3 5 5 5
25 26 26 26 27 29 29 29 30 30 29 28 26 23 22 26 33 35 36 38 29 9 2 2 3 1 1 3 7 14 18 20 23 23 23 24 24 23 19 15 11 8 6 6 6 5 6 7 6 4 4 4 4 5 6 7 8 9 11 15 15 14 14 13 12 13 14 14 15 12 10 12 14 15 13 8 3 4 7 8 7 3 3 3 5 5 4
27 26 26 25 26 27 28 29 29 29 29 27 20 11 6 12 28 38 37 36 33 17 4 3 5 2 1 2 4 10 16 19 21 24 23 19 18 20 20 16 12 10 7 6 7 7 6 6 6 7 7 8 6 4 4 5 7 9 13 17 18 17 16 14 14 15 15 14 15 14 13 14 14 12 7 2 5 5 6 5 2 3 4 3 3 2 1
28 28 27 26 26 27 27 28 28 28 28 22 13 5 2 2 18 33 36 37 34 19 3 2 4 1 0 3 5 9 17 20 18 19 21 19 16 18 20 16 11 10 9 8 7 7 5 5 6 8 9 11 9 4 3 6 7 9 14 17 17 16 15 14 15 16 16 15 15 14 13 13 12 10 7 4 5 5 4 3 3 4 5 4 3 2 2
28 29 28 27 28 28 28 28 28 29 30 26 19 13 8 3 7 18 29 36 30 13 2 2 4 1 1 3 2 5 13 18 14 12 15 16 13 13 15 12 8 8 9 7 5 5 5 6 8 9 10 11 9 3 3 7 9 11 14 16 15 14 14 15 15 15 15 15 14 12 12 13 12 9 5 1 5 5 4 5 6 6 5 4 3 3 3
28 29 28 28 28 27 27 28 28 29 29 28 27 28 26 16 7 9 23 31 21 7 3 3 3 2 3 2 1 4 10 12 9 8 10 11 10 8 8 8 6 7 8 7 4 3 4 6 9 9 8 8 6 3 4 8 10 13 16 17 15 14 14 14 14 14 14 14 13 11 11 9 5 1 3 5 6 5 5 7 7 6 5 3 3 3 3
26 27 29 29 28 28 27 27 27 27 23 18 19 28 35 30 17 14 25 26 11 1 4 4 1 2 4 1 1 8 13 9 7 8 8 8 9 7 5 5 5 5 6 6 4 3 4 6 8 7 6 6 6 5 5 8 12 15 17 17 15 14 14 13 13 14 14 11 8 5 3 2 4 5 4 5 5 6 6 6 5 5 4 3 4 4 4
24 25 26 27 27 29 27 25 23 21 16 12 14 23 32 31 23 24 33 28 10 1 3 4 1 4 5 2 3 9 12 8 6 7 6 6 7 7 4 4 5 5 5 5 4 5 7 7 6 5 5 6 6 5 6 9 14 16 16 16 15 14 13 13 14 13 8 2 2 2 3 4 4 4 4 5 6 6 5 5 4 4 4 4 4 5 4
22 21 22 23 25 24 21 19 19 16 10 10 15 19 21 21 22 29 36 29 12 3 3 3 3 5 6 5 5 6 8 7 6 6 5 3 3 5 4 4 4 4 3 4 5 7 8 6 5 5 6 7 7 8 10 13 16 17 17 16 14 13 15 16 14 7 2 5 4 3 3 3 4 4 4 5 5 5 5 5 5 4 4 4 4 4 3
20 18 18 17 16 13 9 9 14 16 15 15 15 14 13 13 16 20 23 17 9 5 3 3 5 6 6 6 4 5 7 7 5 5 5 4 3 3 4 4 4 3 3 4 7 7 6 6 5 7 9 9 10 11 13 14 16 16 16 16 14 13 14 12 5 5 6 5 3 2 3 2 4 4 4 5 5 6 5 6 5 4 4 4 3 3 2
18 17 15 11 7 4 4 6 11 17 19 18 13 8 8 9 7 6 6 5 4 4 4 3 4 5 5 5 4 6 7 7 5 4 4 4 3 3 2 3 4 4 3 5 6 4 4 5 6 8 11 10 11 14 14 13 13 14 14 13 12 9 6 2 4 7 5 3 4 3 3 3 5 6 5 5 5 5 4 3 3 3 3 3 3 2 2
15 13 11 8 5 3 2 4 10 15 16 16 13 7 4 3 3 2 2 2 2 3 3 4 5 6 7 7 6 5 5 6 6 6 5 4 4 4 3 3 4 4 4 5 4 5 5 6 5 8 10 9 11 16 16 13 12 12 7 4 2 1 2 3 3 3 3 3 2 1 2 1 3 5 6 5 5 5 4 3 3 3 3 3 3 3 4
12 8 4 3 4 4 4 8 15 17 13 9 6 4 2 2 3 3 3 3 3 3 4 5 5 6 9 10 8 6 5 6 6 6 6 5 4 3 3 3 3 3 5 6 4 4 4 5 5 7 8 8 12 16 15 12 11 6 1 4 4 4 5 5 4 4 4 4 5 5 4 4 3 2 4 4 4 4 4 3 3 3 3 3 3 4 5
7 5 2 2 4 7 10 13 15 12 6 2 2 2 3 3 2 1 2 4 5 3 2 4 6 8 10 10 7 6 6 5 3 3 4 4 3 3 3 3 2 3 4 5 3 3 3 4 5 7 8 9 13 14 11 8 6 1 5 5 4 5 6 6 6 5 5 5 5 4 4 5 5 4 4 4 3 3 3 3 4 4 5 5 5 5 6
10 7 6 5 5 7 9 9 6 2 1 2 2 2 3 2 2 1 2 4 3 2 2 4 6 8 8 7 5 3 3 3 2 2 3 4 3 3 3 2 2 3 3 2 3 3 3 4 5 7 9 12 13 10 6 4 3 4 5 4 4 5 5 6 6 5 5 5 5 4 5 5 5 4 5 5 4 3 4 4 5 6 6 6 6 6 7
18 13 7 4 4 4 4 3 2 2 2 2 2 3 3 2 2 3 3 2 1 2 2 2 2 2 3 3 2 1 2 2 2 1 2 3 2 2 2 3 3 2 2 2 3 4 5 5 6 8 9 8 6 3 3 4 4 6 5 5 5 6 6 6 7 6 6 6 6 5 5 6 5 4 5 5 5 4 5 6 7 7 7 7 7 8 9
13 9 4 2 2 3 3 3 2 3 4 4 4 5 5 4 4 5 4 3 3 4 4 4 4 5 5 4 2 2 2 2 2 1 1 2 2 2 3 3 3 1 1 2 3 4 4 4 6 7 6 3 1 2 3 4 5 6 6 5 5 6 7 7 7 6 6 5 5 5 5 4 4 4 4 5 5 5 6 7 7 6 7 7 8 10 11
5 3 3 2 2 3 3 2 2 3 5 5 4 4 5 6 6 5 4 3 4 5 6 6 7 7 5 2 2 1 2 2 2 2 2 2 2 2 2 2 2 2 2 3 4 4 3 4 5 8 9 6 3 4 4 4 4 5 6 6 6 6 6 6 6 5 4 4 4 4 3 2 2 2 3 4 5 6 7 7 7 6 6 7 8 10 11
3 2 3 3 4 3 3 3 2 3 3 4 5 5 6 6 5 4 4 3 4 6 7 7 7 7 5 3 1 1 2 2 3 2 2 2 3 3 2 1 2 2 3 4 4 4 5 7 7 8 7 4 4 5 4 4 4 4 5 6 6 5 5 5 5 4 4 4 4 3 2 2 1 2 3 3 4 6 7 8 8 8 7 8 9 11 12
2 2 2 2 3 3 3 4 3 1 1 2 3 4 3 2 2 2 2 2 3 5 5 4 3 3 3 2 1 1 1 2 3 3 2 2 2 1 2 1 2 3 4 5 6 5 7 9 7 4 2 4 5 5 4 4 4 4 4 5 5 6 5 5 4 4 4 4 4 3 2 2 2 2 3 4 5 6 6 7 8 8 8 10 12 13 13
2 2 2 2 3 3 2 2 2 1 0 1 1 1 0 1 2 2 1 1 2 4 6 5 3 2 2 1 2 2 2 2 2 2 2 1 1 1 1 2 3 3 3 5 7 7 7 6 3 2 3 4 4 5 5 5 5 5 6 6 6 6 5 4 4 4 4 3 3 2 2 2 2 3 3 4 6 7 7 7 8 9 10 11 12 13 14
1 1 1 1 2 2 1 1 1 2 1 1 1 1 1 2 3 3 1 1 2 3 4 3 3 3 2 2 2 2 2 2 3 2 2 2 2 2 2 3 4 4 4 5 6 6 4 1 3 4 3 4 4 4 4 4 4 4 5 5 5 5 4 4 4 4 4 4 3 3 2 2 2 3 3 4 5 7 8 9 11 12 13 13 13 14 15
1 1 1 1 2 2 0 0 2 3 2 2 0 1 2 2 2 2 1 1 3 4 3 3 2 2 2 2 2 2 3 2 2 2 2 3 3 3 2 3 5 5 5 5 3 2 1 2 3 3 4 4 5 4 5 5 5 5 4 5 5 4 4 4 4 4 4 4 3 3 3 2 2 2 3 3 6 8 11 14 14 14 15 15 14 14 15
1 1 0 1 2 1 1 1 2 3 3 3 3 3 2 1 1 1 1 1 3 5 4 3 2 3 3 3 3 3 2 2 2 3 3 3 3 3 4 6 6 4 2 1 1 2 2 2 3 4 5 5 5 5 5 5 5 5 5 5 5 5 4 4 4 4 3 3 3 3 3 3 3 3 4 6 7 9 10 13 14 13 13 13 13 14 15
2 2 1 1 1 0 0 0 1 1 1 0 1 2 2 2 1 1 1 2 4 5 4 2 2 3 3 3 2 2 1 1 2 3 3 3 3 3 4 4 3 0 1 1 2 2 2 2 3 3 4 5 6 6 6 5 4 4 5 5 6 5 5 4 4 4 3 3 3 3 3 3 3 4 5 6 6 4 5 9 12 13 12 13 14 15 15
Wind_Direction
164 166 175 171 171 217 241 303 315 278 186 172 171 170 192 208 195 102 160 176 171 166 204 209 200 218 215 194 197 187 175 191 173 160 175 182 165 194 224 230 235 241 245 251 251 244 243 242 240 243 246 249 259 70 92 89 65 7 284 281 44 60 259 257 266 269 270 272 270 265 248 248 267 263 259 256 249 249 255 266 282 275 261 266 268 262 258
173 168 173 177 175 179 164 122 3 353 173 175 175 178 198 199 156 74 171 183 182 185 206 207 212 217 211 213 216 210 212 213 197 189 192 191 196 215 228 234 237 240 244 248 247 246 249 248 248 254 256 254 72 66 47 37 78 344 332 337 11 311 271 289 296 282 276 267 254 245 212 218 272 271 276 275 265 264 267 267 276 262 238 246 260 267 267
188 190 188 192 195 188 179 179 14 354 244 181 187 213 197 173 171 130 182 194 200 212 222 218 218 216 220 227 225 225 227 213 208 214 214 216 225 228 233 247 249 244 248 252 248 245 247 252 267 274 255 251 72 63 30 29 41 46 54 60 27 286 271 297 282 267 263 257 254 270 305 320 287 278 272 272 266 265 270 272 267 260 249 244 255 274 277
201 212 210 211 213 205 206 224 270 316 310 196 211 243 207 181 193 181 172 213 230 243 264 244 229 218 222 230 230 231 231 215 189 212 228 233 232 235 241 244 248 240 237 242 246 243 236 234 250 256 244 252 81 103 86 64 76 89 93 97 56 268 252 246 245 247 254 259 270 293 302 289 278 276 265 259 255 254 262 268 260 264 273 264 261 272 274
221 222 219 217 216 219 229 237 250 291 315 216 227 255 230 226 211 177 168 189 223 235 240 230 231 227 222 223 227 233 235 229 198 195 223 239 233 237 243 233 229 230 229 237 248 250 243 234 239 249 253 261 258 163 124 90 91 114 136 154 202 267 265 259 255 256 261 267 273 279 283 279 277 279 274 268 263 255 250 253 256 267 278 268 259 266 270
237 225 221 220 218 223 231 236 250 283 311 256 235 237 223 247 228 172 164 208 205 218 219 207 220 231 229 226 232 236 235 230 223 208 197 229 235 233 238 235 234 234 236 240 243 247 247 241 241 248 254 265 266 229 144 104 113 154 153 152 206 268 269 266 267 267 268 272 274 275 277 278 278 278 273 271 269 262 255 255 261 266 266 266 274 276 275
231 223 223 224 223 225 229 231 242 269 298 300 261 238 209 236 245 56 356 284 197 194 183 192 212 228 231 233 237 238 234 230 231 208 175 212 223 223 233 237 232 232 236 236 232 236 242 241 238 244 263 354 286 268 261 117 110 110 138 199 230 257 262 266 272 274 273 274 276 277 278 277 275 272 270 268 266 263 263 266 270 270 268 272 278 276 274
223 223 224 224 223 223 226 225 233 256 285 296 258 249 237 265 275 96 81 174 53 26 192 195 209 225 228 232 236 237 237 236 228 169 184 226 220 220 233 230 182 147 219 220 229 236 244 262 226 85 54 296 294 283 272 257 96 67 342 263 256 259 266 281 299 287 275 274 277 278 278 277 277 277 274 269 266 265 268 272 274 274 273 275 275 274 274
223 223 223 223 222 221 222 222 225 242 267 264 245 255 276 340 346 352 215 192 146 134 196 200 210 221 222 227 234 234 235 237 233 200 148 240 235 233 233 207 121 107 194 221 237 237 83 65 138 100 16 289 306 311 289 279 316 314 264 242 246 257 269 287 289 272 268 269 274 283 302 303 283 269 261 259 260 265 268 270 273 275 278 280 278 277 281
224 224 224 223 221 220 221 221 221 228 237 242 246 257 149 177 326 319 260 212 166 160 173 198 210 222 224 226 231 234 236 235 230 219 138 78 267 252 225 191 178 205 211 217 231 103 85 83 88 89 77 304 290 275 270 262 260 256 250 250 242 245 260 274 268 266 265 256 262 300 344 308 272 251 245 251 257 263 265 266 270 271 274 280 281 280 283
224 225 225 223 221 222 221 219 222 225 225 225 245 258 201 198 265 242 242 232 188 169 171 196 209 220 214 215 217 204 199 203 212 222 212 139 115 97 183 188 216 236 218 118 85 82 82 77 73 68 261 257 255 258 262 256 244 235 240 251 250 244 248 258 263 266 265 261 268 291 277 264 261 218 215 252 262 264 266 269 270 271 273 277 275 234 172
224 224 224 224 223 223 221 218 220 224 223 224 245 256 219 193 250 238 226 230 200 177 187 207 219 211 176 188 196 180 182 193 205 241 236 173 157 141 152 180 211 216 121 97 97 94 82 55 287 262 250 246 246 246 249 250 244 233 229 235 245 249 248 254 259 261 269 274 276 267 254 249 267 95 184 256 268 266 267 268 268 271 273 273 274 265 207
224 222 222 222 222 223 223 220 218 220 222 221 231 242 213 189 217 254 229 236 219 193 197 196 161 155 158 166 174 166 151 138 92 48 99 165 169 175 179 182 184 139 113 108 112 104 316 284 268 258 250 243 240 239 240 243 244 239 230 226 234 245 249 256 256 254 264 265 250 252 258 271 282 223 194 234 254 249 259 264 264 266 268 272 281 287 104
224 223 222 221 220 219 219 219 218 219 221 218 220 231 214 196 208 238 232 246 238 194 191 193 159 168 177 169 159 147 130 127 123 113 145 164 181 193 187 142 102 110 124 130 135 202 256 265 264 262 252 236 235 242 242 241 241 241 237 232 231 236 243 254 255 248 253 256 250 258 277 279 262 244 213 221 255 259 276 283 280 282 287 281 269 129 100
224 224 223 222 221 219 217 217 216 216 219 219 219 225 215 202 208 231 242 252 242 199 197 219 194 177 181 180 170 163 162 172 180 167 117 123 190 177 106 94 104 126 147 165 198 215 221 231 242 255 246 224 230 261 256 244 240 238 248 251 240 237 238 243 251 249 248 260 262 261 268 271 264 276 7 28 11 360 348 299 284 352 48 29 122 114 68
225 225 224 222 221 218 217 217 216 215 217 216 216 224 223 208 203 216 235 257 245 230 221 221 193 174 176 182 183 191 203 199 187 177 168 187 189 149 90 78 114 172 171 181 214 214 203 209 217 235 244 214 209 325 357 297 276 128 90 300 241 237 240 238 248 255 247 254 260 255 262 272 235 218 16 55 50 21 360 292 279 161 106 95 91 59 340
230 230 229 225 222 219 218 217 214 214 215 213 212 220 222 209 198 199 210 228 236 258 292 159 167 169 172 180 185 197 215 201 186 195 198 179 164 141 112 84 110 192 190 193 197 186 204 216 210 235 248 158 120 281 270 116 247 188 137 130 179 211 228 226 234 245 242 246 252 250 260 277 307 299 322 78 103 38 310 282 279 147 131 108 44 297 290
233 233 231 229 226 224 223 221 217 215 215 213 211 216 218 211 202 197 201 218 231 256 226 179 184 183 168 171 175 171 171 173 176 186 161 140 137 146 150 140 154 200 201 201 204 200 209 219 212 234 249 170 130 266 251 147 196 230 207 196 181 184 214 224 232 241 242 244 251 255 260 264 266 278 277 156 129 243 260 269 288 147 192 239 247 257 272
234 233 232 230 229 226 226 225 221 220 219 214 211 214 217 214 206 199 200 215 226 237 202 180 194 209 149 115 135 142 157 182 186 174 164 168 141 125 131 147 175 191 190 193 212 215 212 224 222 221 245 217 159 205 248 214 209 242 228 234 226 196 203 227 237 242 243 246 254 262 267 251 217 239 222 162 185 256 262 241 136 184 230 250 240 247 262
236 235 233 232 231 229 227 226 224 223 222 218 213 212 215 220 214 204 200 209 231 245 224 190 202 216 204 170 170 165 161 180 196 196 194 186 137 121 138 197 186 168 175 182 202 213 205 219 223 206 231 238 195 147 236 240 238 225 220 235 247 247 249 247 241 239 245 253 250 251 269 264 140 139 171 198 221 255 282 190 193 211 235 255 249 245 243
237 237 236 234 234 232 230 229 227 224 224 221 216 213 214 220 218 209 205 211 227 244 238 211 206 211 215 214 203 188 179 183 195 208 208 170 158 162 182 188 162 160 178 180 190 209 202 209 218 208 221 236 213 177 203 229 239 232 225 245 256 251 250 253 252 244 248 257 247 241 275 293 154 176 241 251 244 266 289 282 275 275 277 277 272 266 257
238 238 237 236 236 235 233 233 230 227 226 223 219 216 214 214 216 213 210 212 223 245 258 227 212 218 228 230 222 213 214 214 213 221 227 191 185 199 203 125 151 173 187 167 173 195 189 183 196 202 208 218 220 219 213 219 234 234 208 228 227 220 225 235 247 256 258 266 273 277 290 288 199 200 245 262 264 273 275 269 273 276 276 276 277 277 274
239 239 238 236 236 235 235 235 233 230 230 227 222 219 217 213 213 214 211 209 222 245 252 231 224 229 234 233 228 225 227 230 229 227 225 220 215 220 221 196 175 171 179 191 202 205 193 181 188 205 214 211 213 217 215 221 235 238 227 224 224 233 242 244 253 264 265 267 271 272 275 271 256 244 248 253 259 267 266 258 260 262 265 268 270 275 278
240 239 238 238 237 235 234 234 233 232 231 229 226 223 221 217 210 206 203 202 224 242 233 216 216 222 222 220 219 218 221 223 223 221 220 222 226 229 226 216 198 173 190 206 213 220 198 188 194 221 227 215 210 219 226 230 234 232 234 241 242 245 250 251 251 258 260 260 260 259 260 264 264 260 258 257 259 261 260 261 265 270 273 272 272 276 280
242 240 240 241 240 237 235 235 235 234 231 231 230 224 220 218 208 200 197 198 209 221 224 222 222 224 224 218 212 217 223 224 219 215 218 221 222 227 234 227 214 213 220 207 179 147 177 190 193 222 229 218 217 230 237 239 236 228 228 240 244 245 248 243 238 244 250 256 261 262 262 264 266 265 265 267 265 265 269 272 273 280 281 273 261 265 268
246 243 243 244 242 241 240 238 238 236 233 233 231 224 219 218 211 202 199 199 205 227 229 242 234 218 210 204 211 221 227 225 218 214 215 219 222 227 235 240 227 221 229 220 185 188 206 207 204 220 226 218 223 236 243 245 245 241 238 242 248 253 251 238 234 246 255 257 260 262 264 266 266 262 259 260 264 270 274 273 273 281 282 256 194 199 238
248 247 246 245 244 243 243 241 240 237 234 233 232 228 224 222 214 206 201 196 184 232 225 227 245 189 187 205 220 222 220 216 212 211 214 218 222 225 227 232 231 215 204 198 195 201 217 220 212 219 225 221 230 241 245 245 246 247 247 247 248 252 250 241 237 249 252 246 245 249 256 265 268 266 262 264 271 278 277 270 269 275 271 239 196 190 201
248 248 247 246 244 242 243 242 241 240 239 239 238 234 230 225 220 217 212 207 204 230 267 211 217 90 185 223 226 216 208 206 205 204 210 216 219 220 220 221 225 216 198 196 198 196 214 222 219 221 226 226 234 238 236 237 242 244 244 241 236 239 243 241 237 243 245 242 243 247 254 263 269 275 277 277 277 272 263 262 270 275 263 216 206 208 207
248 247 246 246 244 243 243 243 243 242 241 240 237 231 228 226 225 224 219 213 212 225 324 221 223 227 167 196 204 202 203 203 200 201 208 212 214 217 220 222 223 215 199 201 211 211 215 219 220 220 206 192 212 232 227 226 231 230 232 236 237 238 242 243 244 248 250 251 254 256 258 262 269 278 283 281 251 228 244 256 262 241 158 172 209 221 224
250 247 246 245 244 244 244 242 241 242 240 235 227 219 218 229 227 224 219 213 212 214 223 225 223 219 146 148 168 188 195 199 202 206 208 208 211 216 219 222 224 219 207 205 212 214 218 219 222 228 214 195 199 225 215 212 227 233 233 238 242 244 244 242 242 246 249 253 257 258 258 263 272 278 275 213 157 191 232 247 226 151 144 167 191 182 159
251 248 247 245 243 243 244 241 241 243 237 223 203 180 88 226 226 222 215 209 207 206 204 230 216 195 69 200 191 187 187 189 198 209 210 211 214 216 215 216 219 219 215 214 213 216 220 216 217 228 224 212 214 227 208 206 229 237 234 236 241 245 247 245 242 243 246 251 256 259 260 264 268 268 258 216 164 172 184 150 105 102 112 126 136 124 111
252 251 249 247 244 243 245 243 242 241 233 220 211 219 224 215 238 226 210 201 199 195 149 216 212 194 192 204 197 183 182 182 189 205 211 212 213 213 212 213 216 218 215 213 214 217 217 217 223 233 230 220 220 228 206 214 230 236 235 238 243 244 246 247 246 244 245 246 248 251 254 256 257 258 260 126 108 119 130 122 111 106 107 105 97 97 106
252 252 250 249 247 245 245 245 243 242 239 234 233 238 235 232 254 230 195 188 186 177 157 193 207 194 183 160 94 167 173 177 190 204 206 206 206 207 208 206 210 217 210 203 210 219 209 215 228 235 231 221 218 225 220 219 227 234 239 243 245 245 247 249 249 248 247 243 239 241 246 247 238 176 96 95 100 105 111 114 113 112 110 111 133 147 138
251 253 252 251 250 246 244 247 246 244 242 236 236 240 237 232 231 207 186 179 167 122 193 187 172 190 175 90 74 174 169 168 188 199 198 198 193 190 189 186 194 210 203 192 201 225 218 221 230 233 226 213 210 225 237 226 226 234 241 245 247 250 253 254 252 250 249 242 234 235 237 140 117 116 123 130 123 114 112 115 123 132 139 160 183 174 149
253 253 252 252 253 248 246 246 244 241 236 224 227 238 238 233 224 204 188 178 158 44 205 184 187 191 178 183 221 183 170 175 193 188 181 180 178 179 177 170 187 203 191 171 193 224 221 220 227 229 222 213 213 226 235 227 226 231 238 242 245 248 250 251 249 247 244 218 134 100 94 116 150 179 178 160 149 141 136 136 142 155 169 183 182 164 154
254 253 253 255 254 250 247 242 236 230 220 214 227 240 242 236 225 208 194 186 182 203 188 174 198 193 183 204 215 166 156 176 186 169 160 151 160 182 188 179 192 203 175 162 206 225 221 216 221 226 222 219 223 229 229 230 234 237 238 241 241 240 243 248 248 238 130 81 85 103 120 158 197 205 180 159 151 149 155 160 161 169 185 190 179 166 172
255 254 252 250 247 245 243 231 220 219 219 219 226 234 229 216 210 204 197 195 205 212 183 191 212 197 191 211 203 146 156 179 170 149 157 159 154 174 184 190 200 192 172 197 215 220 219 214 215 226 229 228 233 237 234 234 240 244 244 247 247 245 248 253 235 136 104 81 77 116 129 169 207 200 180 169 158 156 169 178 173 167 175 184 183 179 192
258 254 243 230 219 224 228 210 205 212 215 211 205 200 186 177 180 190 191 196 211 201 191 214 208 185 190 213 186 156 165 173 154 145 165 169 166 169 176 204 207 192 205 224 212 196 214 221 216 228 236 237 242 247 243 237 239 243 246 251 256 256 255 238 133 137 160 226 249 211 181 210 224 212 192 177 165 162 167 162 143 139 156 176 189 202 221
251 250 235 211 193 201 223 201 193 193 190 185 184 188 183 168 178 192 175 176 203 195 196 212 201 179 181 192 184 169 167 162 159 171 178 172 178 181 178 197 198 186 215 226 185 162 203 220 211 227 239 239 242 246 243 236 238 244 247 258 294 358 78 102 117 145 183 227 242 154 135 208 227 203 183 171 160 154 144 129 132 149 160 171 196 222 240
230 230 218 194 206 212 183 166 169 168 161 160 179 200 201 186 192 182 159 176 207 204 193 202 202 191 190 189 183 180 181 170 166 176 180 178 180 168 164 189 185 171 206 218 183 160 203 219 210 224 235 233 237 244 243 236 236 242 90 78 76 76 89 96 82 76 90 91 78 73 70 56 52 101 135 142 142 144 141 139 150 164 170 188 218 234 245
201 199 196 194 198 185 168 162 162 158 150 155 197 200 197 196 194 175 168 187 200 204 189 184 189 197 201 196 180 169 176 175 160 157 169 173 161 142 160 187 188 178 205 209 169 146 193 217 216 224 230 232 238 244 243 233 225 159 77 82 91 90 95 99 90 81 91 100 94 84 83 80 75 78 90 100 114 133 148 160 176 188 195 206 225 241 253
212 213 214 202 180 158 154 160 164 162 179 194 192 197 203 183 147 159 199 206 205 197 183 190 195 195 192 186 171 154 156 152 124 136 171 179 171 163 171 185 193 197 200 175 125 138 193 215 220 225 230 237 242 241 227 200 157 105 95 98 101 102 109 109 97 83 83 99 108 109 104 102 102 108 117 126 140 161 178 188 195 201 208 219 234 248 255
227 224 216 193 171 156 162 185 198 189 183 181 179 189 191 175 172 195 205 216 210 171 154 156 162 150 154 163 154 87 97 128 132 158 195 185 151 145 173 190 192 190 165 122 139 182 203 213 224 229 232 239 245 224 161 136 115 106 106 103 98 103 109 107 102 96 90 92 101 110 115 117 121 128 142 157 169 185 206 218 220 224 231 238 243 248 253
218 210 196 181 185 187 198 201 179 178 196 200 192 190 190 188 193 196 187 171 168 168 160 154 160 164 169 170 149 104 112 138 135 142 196 177 142 158 192 196 184 150 121 149 184 205 219 229 235 238 241 240 165 122 131 128 121 119 119 115 114 118 117 117 118 116 108 101 103 109 117 125 131 144 171 191 197 205 221 234 239 244 251 254 254 258 262
191 170 168 204 211 189 186 184 166 183 206 206 196 200 203 196 192 192 182 154 150 157 161 170 177 174 162 138 124 140 147 144 152 173 177 168 178 194 191 174 153 153 176 191 196 207 226 236 237 240 240 228 182 149 146 138 132 131 129 130 136 139 134 131 131 126 121 122 123 120 124 133 149 176 205 223 229 233 243 253 259 262 263 259 258 263 269
187 175 181 213 221 202 200 212 196 182 198 200 195 202 207 197 183 171 156 147 158 166 169 175 178 171 155 128 119 151 140 139 165 181 159 157 189 194 157 126 150 173 193 209 210 209 221 230 234 238 236 209 147 133 135 129 122 125 128 132 137 134 124 121 125 127 129 132 133 132 138 152 179 221 246 257 258 256 259 268 273 273 268 261 260 266 273
201 189 174 218 230 204 202 221 220 199 203 201 194 199 203 183 139 125 151 175 173 158 149 144 141 137 133 120 122 149 158 164 177 175 154 161 188 168 112 148 194 192 198 211 216 216 225 230 230 222 170 128 124 128 131 127 125 123 119 121 128 132 130 130 133 132 131 131 133 142 158 179 211 244 263 273 273 271 273 278 279 275 267 262 265 269 272
197 184 176 212 222 207 203 214 194 147 48 335 321 335 354 145 154 159 189 207 167 145 143 142 135 120 119 134 145 150 155 164 178 181 162 140 146 140 150 199 217 214 210 217 219 222 227 228 213 125 115 127 131 129 129 134 135 130 123 127 136 140 141 140 137 134 133 133 141 158 177 198 226 243 260 278 287 292 294 291 288 285 277 271 271 274 273
137 164 157 187 216 238 289 298 236 194 166 56 1 325 250 192 181 166 138 140 155 140 129 125 127 132 139 141 143 165 185 186 181 171 152 157 184 191 184 194 207 209 213 219 222 224 227 182 91 95 108 115 111 110 119 126 124 118 118 123 127 128 131 135 135 140 149 157 167 182 193 205 230 248 259 274 287 297 302 300 297 295 292 286 281 279 278
17 178 158 204 222 220 158 127 237 222 183 122 108 245 231 210 183 145 124 140 139 120 101 90 103 119 123 127 146 184 203 192 175 164 169 185 195 185 179 205 215 214 214 220 220 197 125 114 118 119 116 116 117 119 121 123 123 122 119 114 109 113 131 142 143 150 167 177 182 196 208 217 239 257 266 276 288 296 300 301 299 298 297 294 288 279 274
229 224 207 224 236 226 139 142 214 231 213 189 181 178 185 200 182 132 137 148 138 137 149 157 135 123 139 166 180 186 173 152 163 183 194 194 179 175 201 220 222 211 195 210 62 70 90 126 138 135 134 137 139 136 130 130 130 125 117 119 125 134 143 148 149 156 173 185 194 213 233 249 264 274 281 290 297 302 302 302 303 303 301 297 291 282 274
172 173 148 108 90 353 333 261 247 273 297 254 140 130 141 165 149 117 143 178 169 165 167 148 121 142 175 183 165 138 107 123 166 187 196 194 186 192 211 224 224 139 53 48 69 76 78 81 91 109 130 138 138 135 129 122 114 111 119 132 142 146 146 152 157 163 177 196 215 239 261 280 297 300 297 295 295 293 287 293 302 308 305 299 297 292 284